Sierra Vista, AZ

11:55 AM MST on July 24, 2017 (GMT -0700)
Sierra Vista Municipal-Libby Army Air Field

Weather History for KFHU - March, 2013

Change the Weather History Date:

Wednesday, March 6, 2013

  Actual Average Record
Temperature  
Mean Temperature 63 °F -  
Max Temperature 75 °F 64 °F 78 °F (2006)
Min Temperature 51 °F 41 °F 25 °F (1984)
Degree Days  
Heating Degree Days 2    
Growing Degree Days 13 (Base 50)    
Moisture  
Dew Point 20 °F    
Average Humidity 20    
Maximum Humidity 29    
Minimum Humidity 10    
Precipitation  
Precipitation 0.00 in - - ()
Sea Level Pressure  
Sea Level Pressure 29.94 in    
Wind  
Wind Speed 8 mph (SW)    
Max Wind Speed 20 mph    
Max Gust Speed 33 mph    
Visibility 10 miles    
Events      
Averages and records for this station are not official NWS values.
T = Trace of Precipitation, MM = Missing Value Source: NWS Daily Summary

Daily Weather History Graph

Daily Weather History Graph

Search for Another Location

Airport or City:

Trip Planner

Search our weather history database for the weather conditions in past years. The results will help you decide how hot, cold, wet, or windy it might be!

Date:

Astronomy

Mar. 06, 2013 Rise Set
Actual Time 6:42 AM MST 6:23 PM MST
Civil Twilight 6:17 AM MST 6:47 PM MST
Nautical Twilight 5:49 AM MST 7:15 PM MST
Astronomical Twilight 5:21 AM MST 7:44 PM MST
Moon 2:39 AM MST (3/6) 1:23 PM MST (3/6)
Length of Visible Light 12h 29m
Length of Day
11h 41m
Waning Crescent, 29% of the Moon is Illuminated
Mar 6
Waning Crescent
Mar 11
New
Mar 19
First Quarter
Mar 27
Full
Apr 2
Last Quarter

Hourly Weather History & Observations

Time (MST) Temp. Dew Point Humidity Pressure Visibility Wind Dir Wind Speed Gust Speed Precip Events Conditions
12:55 AM 55.4 °F 21.2 °F 26% 29.99 in 10.0 mi West 5.8 mph - N/A   Mostly Cloudy
1:55 AM 57.2 °F 21.2 °F 25% 29.96 in 10.0 mi South 5.8 mph - N/A   Mostly Cloudy
2:55 AM 55.4 °F 21.2 °F 26% 29.95 in 10.0 mi East 6.9 mph - N/A   Mostly Cloudy
3:55 AM 53.6 °F 21.2 °F 28% 29.96 in 10.0 mi WSW 5.8 mph - N/A   Mostly Cloudy
4:55 AM 59.0 °F 10.4 °F 15% 29.96 in 10.0 mi SSW 8.1 mph - N/A   Mostly Cloudy
5:55 AM 59.0 °F 6.8 °F 13% 29.97 in 10.0 mi Variable 4.6 mph - N/A   Mostly Cloudy
6:55 AM 53.6 °F 19.4 °F 26% 30.00 in 10.0 mi Variable 4.6 mph - N/A   Mostly Cloudy
7:55 AM 51.8 °F 19.4 °F 28% 30.02 in 10.0 mi Calm Calm - N/A   Mostly Cloudy
8:55 AM 60.8 °F 17.6 °F 19% 30.01 in 10.0 mi West 3.5 mph - N/A   Mostly Cloudy
9:55 AM 66.2 °F 21.2 °F 18% 29.99 in 10.0 mi Variable 4.6 mph - N/A   Mostly Cloudy
10:55 AM 71.6 °F 28.4 °F 20% 29.97 in 10.0 mi WSW 13.8 mph 19.6 mph N/A   Mostly Cloudy
11:55 AM 71.6 °F 26.6 °F 19% 29.97 in 10.0 mi WSW 8.1 mph 17.3 mph N/A   Mostly Cloudy
12:55 PM 71.6 °F 26.6 °F 19% 29.93 in 10.0 mi West 19.6 mph 33.4 mph N/A   Scattered Clouds
1:55 PM 75.2 °F 26.6 °F 17% 29.89 in 10.0 mi WSW 18.4 mph 26.5 mph N/A   Partly Cloudy
2:55 PM 75.2 °F 23.0 °F 14% 29.88 in 10.0 mi WSW 19.6 mph 31.1 mph N/A   Partly Cloudy
3:55 PM 75.2 °F 14.0 °F 10% 29.88 in 10.0 mi West 15.0 mph 23.0 mph N/A   Partly Cloudy
4:55 PM 73.4 °F 12.2 °F 10% 29.88 in 10.0 mi SSW 11.5 mph 24.2 mph N/A   Partly Cloudy
5:55 PM 71.6 °F 15.8 °F 12% 29.88 in 10.0 mi SW 12.7 mph - N/A   Partly Cloudy
6:55 PM 62.6 °F 19.4 °F 19% 29.92 in 10.0 mi SW 9.2 mph - N/A   Partly Cloudy
7:55 PM 64.4 °F 19.4 °F 18% 29.94 in 10.0 mi SSW 13.8 mph - N/A   Clear
8:55 PM 60.8 °F 21.2 °F 22% 29.92 in 10.0 mi South 8.1 mph - N/A   Clear
9:55 PM 55.4 °F 23.0 °F 29% 29.92 in 10.0 mi Calm Calm - N/A   Clear
10:55 PM 57.2 °F 24.8 °F 29% 29.91 in 10.0 mi SW 9.2 mph - N/A   Clear
11:55 PM 57.2 °F 24.8 °F 29% 29.90 in 10.0 mi SSE 4.6 mph - N/A   Clear